Tracking 19247 objects as of 25-Sep-2018
HD Live streaming from Space Station
objects crossing your sky now

FENGYUN 1C DEB

Track FENGYUN 1C DEB now!
10-day predictions


NORAD ID: 31033
Int'l Code: 1999-025BEB
Perigee: 703.8 km
Apogee: 931.3 km
Inclination: 98.5 °
Period: 101.1 minutes
Semi major axis: 7188 km
RCS: 0.0023 m2 (small)
Launch date: May 10, 1999
Source: People's Republic of China (PRC)
Launch site: Taiyaun Space Center, China (TSC)

Note: This is SATELLITE DEBRIS
aabbcc
Your satellite tracking list
Your tracking list is empty




NASA's NSSDC Master Catalog

Two Line Element Set (TLE):
1 31033U 99025BEB 18267.32532703 +.00000077 +00000-0 +46722-4 0  9993
2 31033 098.5269 314.1495 0158249 279.9722 143.3472 14.24418011597927
Source of the keplerian elements: AFSPC